Regional Weather Roundup
Issued by NWS San Angelo, TX

Home | Current Version | Previous Version | Text Only | Print | Product List | Glossary On
Versions: 1 2 3 4 5 6 7 8 9 10 11 12 13 14 15 16 17 18 19 20 21 22 23 24 25 26 27 28 29 30 31 32 33 34 35 36 37 38 39 40 41 42 43 44 45 46 47 48 49 50
000
ASUS44 KSJT 252358
RWRSJT
WEST CENTRAL TEXAS REGIONAL WEATHER ROUNDUP
NATIONAL WEATHER SERVICE SAN ANGELO TX
700 PM CDT SAT MAR 25 2017

NOTE: "FAIR" INDICATES FEW OR NO CLOUDS BELOW 12,000 FEET WITH NO
SIGNIFICANT WEATHER AND/OR OBSTRUCTIONS TO VISIBILITY.

TXZ049-054-064>066-071>073-076>078-098-099-113-114-127-128-139-140-
154-155-168>170-260100
...LOCATIONS ACROSS WEST CENTRAL TEXAS...

CITY           SKY/WX    TMP DP  RH WIND       PRES   REMARKS
SAN ANGELO     SUNNY     80  31  16 W8        29.89F
ABILENE        SUNNY     72  37  28 SW3       29.91F
DYESS AFB      NOT AVBL
JUNCTION       SUNNY     81  33  17 SW5       29.90F
SWEETWATER     NOT AVBL
BROWNWOOD      NOT AVBL
COLEMAN        NOT AVBL
SONORA         NOT AVBL
OZONA          NOT AVBL
BRADY          NOT AVBL
$$

TEXAS PANHANDLE/OKLAHOMA PANHANDLE

CITY           SKY/WX    TMP DP  RH WIND       PRES   REMARKS
AMARILLO       SUNNY     68  30  24 S6        29.90F
BORGER         SUNNY     68  24  19 SW3       29.88F
CANADIAN       NOT AVBL
DALHART        CLOUDY    66  32  28 SE8       29.89F
DUMAS          NOT AVBL
GUYMON         NOT AVBL
HEREFORD       NOT AVBL
PAMPA          NOT AVBL
PERRYTON       NOT AVBL
$$

SOUTHERN PANHANDLE/SOUTH PLAINS/ROLLING PLAINS

CITY           SKY/WX    TMP DP  RH WIND       PRES   REMARKS
LUBBOCK        PTSUNNY   73  30  20 S12       29.89F
SNYDER         NOT AVBL
CHILDRESS      SUNNY     74  24  15 CALM      29.88F
SEMINOLE       NOT AVBL
$$

PERMIAN BASIN

CITY           SKY/WX    TMP DP  RH WIND       PRES   REMARKS
MIDLAND        SUNNY     77  25  14 S12       29.89F
ODESSA         SUNNY     76  25  15 S8        29.91F
WINK           SUNNY     78  25  14 SE8       29.86F
$$

FAR WEST/SOUTHWEST MOUNTAINS/TRANS PECOS

CITY           SKY/WX    TMP DP  RH WIND       PRES   REMARKS
ALPINE         NOT AVBL
DRYDEN         NOT AVBL
EL PASO        MOSUNNY   80   4   5 SW12G20   29.86F
FORT STOCKTON  SUNNY     82  22  11 S15       29.86F
GUADALUPE PASS NOT AVBL
MARFA          NOT AVBL
PECOS          NOT AVBL
$$

DALLAS/FORT WORTH METROPLEX

CITY           SKY/WX    TMP DP  RH WIND       PRES   REMARKS
DFW AIRPORT    PTCLDY    73  44  35 NW9       29.89F
FTW MEACHAM    CLEAR     72  42  34 W8        29.90F
DAL-EXECUTIVE  CLEAR     70  45  40 W6        29.90F
GRAND PRAIRIE  CLEAR     72  41  33 SW7       29.92F
ADDISON        CLEAR     70  45  40 NW5G14    29.92S
MESQUITE       CLEAR     70  43  37 SW9       29.92S
LANCASTER      NOT AVBL
$$

NORTH CENTRAL TEXAS

CITY           SKY/WX    TMP DP  RH WIND       PRES   REMARKS
SHRMAN/DENISON NOT AVBL
GAINESVILLE    NOT AVBL
BRIDGEPORT     NOT AVBL
DENTON         CLEAR     68  45  43 W9        29.91S
WAXAHACHIE     NOT AVBL
GRANBURY       NOT AVBL
$$

WESTERN NORTH TEXAS

CITY           SKY/WX    TMP DP  RH WIND       PRES   REMARKS
WICHITA FALLS  CLEAR     68  42  38 W5        29.89F
VERNON         NOT AVBL
BRECKENRIDGE   NOT AVBL
COMANCHE       NOT AVBL
$$

CENTRAL AND SOUTH CENTRAL TEXAS

CITY           SKY/WX    TMP DP  RH WIND       PRES   REMARKS
AUSTIN/BERGSTM CLEAR     78  51  38 E7        29.90F
WACO           CLEAR     74  48  39 CALM      29.91F
HILLSBORO      NOT AVBL
TEMPLE         CLEAR     73  50  44 E3        29.92F
KILLEEN-GRAY   CLEAR     77  41  27 CALM      29.90F HAZE
FORT HOOD      NOT AVBL
GEORGETOWN     CLEAR     79  45  29 MISG      29.91F
LAGO VISTA     NOT AVBL
SAN MARCOS     CLEAR     81  48  32 SE10      29.91S
NEW BRAUNFELS  CLEAR     81  47  30 S13       29.89S
RANDOLPH AFB   NOT AVBL
SAN ANTONIO    CLEAR     82  41  23 SW10      29.90S
STINSON        CLEAR     82  45  27 SW5       29.88F
PLEASANTON     NOT AVBL
LA GRANGE      NOT AVBL
GIDDINGS       NOT AVBL
$$

EAST TEXAS

CITY           SKY/WX    TMP DP  RH WIND       PRES   REMARKS
PARIS          NOT AVBL
CLARKSVILLE    NOT AVBL
TYLER          CLEAR     69  48  47 W7        29.92R
LONGVIEW       PTCLDY    70  51  51 SW12      29.91R
PALESTINE      NOT AVBL
NACOGDOCHES    NOT AVBL
$$

TEXAS HILL COUNTRY AND EDWARDS PLATEAU

CITY           SKY/WX    TMP DP  RH WIND       PRES   REMARKS
LLANO          NOT AVBL
HORSESHOE BAY  NOT AVBL
KERRVILLE      NOT AVBL
FREDERICKSBRG  NOT AVBL
ROCKSPRINGS    NOT AVBL
HONDO          SUNNY     83  39  21 SW8       29.90F
UVALDE         NOT AVBL
DEL RIO        SUNNY     83  34  17 SE10      29.87F
$$

SOUTHEAST TEXAS

CITY           SKY/WX    TMP DP  RH WIND       PRES   REMARKS
COLLEGE STN    CLEAR     74  49  41 NW3       29.93S
CALDWELL       NOT AVBL
CROCKETT       NOT AVBL
BRENHAM        NOT AVBL
HUNTSVILLE     CLEAR     74  46  36 SW5       29.93S
CONROE         CLEAR     74  52  46 NW3       29.93S
HOUSTON BUSH   CLEAR     78  50  37 W3        29.92S
HOUSTON HOBBY  PTCLDY    80  51  36 W5        29.91S
PERLAND        CLEAR     82  52  35 CALM      29.93S
WHARTON        NOT AVBL
$$

THE UPPER TEXAS COAST

CITY           SKY/WX    TMP DP  RH WIND       PRES   REMARKS
ORANGE         NOT AVBL
PORT ARTHUR    PTCLDY    73  68  84 S9        29.92R
GALVESTON      CLEAR     75  71  87 S14       29.93S
ANGLETON       CLEAR     78  70  76 S12       29.92R
BAY CITY       NOT AVBL
$$

TEXAS COASTAL BEND, RIO GRANDE PLAINS DEEP SOUTH TEXAS

CITY           SKY/WX    TMP DP  RH WIND       PRES   REMARKS
VICTORIA       CLEAR     82  57  42 CALM      29.91S
BEEVILLE       NOT AVBL
ROCKPORT       CLEAR     75  68  78 SE13      29.91S
PORT ARANSAS   NOT AVBL
PORT LAVACA    NOT AVBL
CORPUS CHRISTI PTCLDY    79  70  74 SE15      29.90S
KINGSVILLE NAS NOT AVBL
COTULLA        SUNNY     87  36  16 S5        29.88F
LAREDO         NOT AVBL
BROWNSVILLE    NOT AVBL
PORT ISABEL    CLEAR     80  68  66 SE16      29.89R
HEBBRONVILLE   NOT AVBL
MCALLEN        CLEAR     91  58  32 SE7       29.86F
WESLACO        NOT AVBL
FALFURRIAS     NOT AVBL
EDINBURG       NOT AVBL
$$




USA.gov is the U.S. government's official web portal to all federal, state and local government web resources and services.